Mekoryuk, AK

3:57 PM AKST on January 18, 2017 (GMT -0900)
Mekoryuk

Weather History for PAMY - October, 2013

Change the Weather History Date:

Saturday, October 12, 2013

  Actual Average Record
Temperature  
Mean Temperature 44 °F -  
Max Temperature 46 °F 37 °F 51 °F (2016)
Min Temperature 41 °F 30 °F 19 °F (2001)
Degree Days  
Heating Degree Days 22    
Moisture  
Dew Point 36 °F    
Average Humidity 76    
Maximum Humidity 81    
Minimum Humidity 66    
Precipitation  
Precipitation 0.00 in - - ()
Sea Level Pressure  
Sea Level Pressure 29.13 in    
Wind  
Wind Speed 22 mph (East)    
Max Wind Speed 29 mph    
Max Gust Speed 37 mph    
Visibility 6 miles    
Events      
Averages and records for this station are not official NWS values.
T = Trace of Precipitation, MM = Missing Value Source: NWS Daily Summary

Daily Weather History Graph

Daily Weather History Graph

Search for Another Location

Airport or City:

Trip Planner

Search our weather history database for the weather conditions in past years. The results will help you decide how hot, cold, wet, or windy it might be!

Date:

Astronomy

Oct. 12, 2013 Rise Set
Actual Time 9:39 AM AKDT 8:02 PM AKDT
Civil Twilight 8:56 AM AKDT 8:44 PM AKDT
Nautical Twilight 8:07 AM AKDT 9:33 PM AKDT
Astronomical Twilight 7:18 AM AKDT 10:22 PM AKDT
Moon 5:45 PM AKDT (10/12) 1:21 AM AKDT (10/12)
Length of Visible Light 11h 48m
Length of Day
10h 23m
First Quarter, 60% of the Moon is Illuminated
Oct 12
First Quarter
Oct 18
Full
Oct 26
Last Quarter
Nov 3
New
Nov 9
First Quarter

Hourly Weather History & Observations

Time (AKDT) Temp. Windchill Dew Point Humidity Pressure Visibility Wind Dir Wind Speed Gust Speed Precip Events Conditions
12:16 AM 42.8 °F 32.7 °F 35.6 °F 76% 29.18 in 5.0 mi ENE 27.6 mph 33.4 mph N/A   Overcast
12:36 AM 42.8 °F 32.9 °F 35.6 °F 76% 29.17 in 5.0 mi ENE 26.5 mph 34.5 mph N/A   Overcast
12:56 AM 42.8 °F 32.9 °F 35.6 °F 76% 29.16 in 5.0 mi ENE 26.5 mph 33.4 mph N/A   Overcast
1:16 AM 42.8 °F 33.1 °F 35.6 °F 76% 29.15 in 5.0 mi ENE 25.3 mph 34.5 mph N/A   Overcast
1:36 AM 42.8 °F 33.1 °F 35.6 °F 76% 29.14 in 3.0 mi East 25.3 mph 33.4 mph N/A   Overcast
1:56 AM 41.0 °F 30.5 °F 33.8 °F 76% 29.13 in 4.0 mi East 26.5 mph 34.5 mph N/A   Overcast
2:16 AM 41.0 °F 30.7 °F 33.8 °F 76% 29.12 in 3.0 mi East 25.3 mph 35.7 mph N/A   Overcast
2:36 AM 41.0 °F 30.7 °F 35.6 °F 81% 29.11 in 3.0 mi ENE 25.3 mph 32.2 mph N/A   Overcast
2:56 AM 42.8 °F 32.9 °F 35.6 °F 76% 29.09 in 3.0 mi ENE 26.5 mph 35.7 mph N/A   Overcast
3:16 AM 42.8 °F 33.3 °F 35.6 °F 76% 29.08 in 3.0 mi ENE 24.2 mph 34.5 mph N/A   Overcast
3:36 AM 42.8 °F 33.3 °F 35.6 °F 76% 29.07 in 3.0 mi ENE 24.2 mph 34.5 mph N/A   Overcast
3:56 AM 42.8 °F 32.7 °F 35.6 °F 76% 29.06 in 6.0 mi ENE 27.6 mph 35.7 mph N/A   Overcast
4:16 AM 42.8 °F 33.3 °F 35.6 °F 76% 29.05 in 8.0 mi East 24.2 mph 32.2 mph N/A   Overcast
4:36 AM 42.8 °F 32.5 °F 35.6 °F 76% 29.04 in 8.0 mi East 28.8 mph 36.8 mph N/A   Overcast
4:56 AM 42.8 °F 32.9 °F 35.6 °F 76% 29.03 in 8.0 mi East 26.5 mph 34.5 mph N/A   Overcast
5:16 AM 42.8 °F 33.3 °F 35.6 °F 76% 29.03 in 8.0 mi East 24.2 mph 32.2 mph N/A   Overcast
5:36 AM 42.8 °F 32.9 °F 35.6 °F 76% 29.03 in 5.0 mi East 26.5 mph 33.4 mph N/A   Overcast
5:56 AM 42.8 °F 34.0 °F 37.4 °F 81% 29.03 in 4.0 mi ESE 20.7 mph 33.4 mph N/A   Overcast
6:16 AM 42.8 °F 34.0 °F 37.4 °F 81% 29.04 in 7.0 mi ESE 20.7 mph 28.8 mph N/A   Overcast
6:36 AM 42.8 °F 35.4 °F 37.4 °F 81% 29.04 in 6.0 mi ESE 15.0 mph 25.3 mph N/A   Overcast
6:56 AM 42.8 °F 35.1 °F 37.4 °F 81% 29.04 in 7.0 mi ESE 16.1 mph - N/A   Mostly Cloudy
7:16 AM 42.8 °F 34.5 °F 37.4 °F 81% 29.04 in 7.0 mi East 18.4 mph 23.0 mph N/A   Mostly Cloudy
7:36 AM 42.8 °F 34.5 °F 35.6 °F 76% 29.05 in 7.0 mi ESE 18.4 mph 23.0 mph N/A   Mostly Cloudy
7:56 AM 44.6 °F 37.2 °F 37.4 °F 76% 29.05 in 6.0 mi East 17.3 mph 23.0 mph N/A   Overcast
8:16 AM 42.8 °F 35.8 °F 35.6 °F 76% 29.07 in 7.0 mi East 13.8 mph - N/A   Overcast
8:36 AM 42.8 °F 35.4 °F 35.6 °F 76% 29.07 in 4.0 mi East 15.0 mph 26.5 mph N/A   Overcast
8:56 AM 42.8 °F 34.5 °F 35.6 °F 76% 29.07 in 7.0 mi ESE 18.4 mph 23.0 mph N/A   Overcast
9:16 AM 44.6 °F 36.4 °F 37.4 °F 76% 29.08 in 5.0 mi ESE 20.7 mph - N/A   Overcast
9:36 AM 44.6 °F 36.9 °F 37.4 °F 76% 29.09 in 6.0 mi ESE 18.4 mph - N/A   Overcast
9:56 AM 44.6 °F 36.6 °F 37.4 °F 76% 29.09 in 5.0 mi East 19.6 mph 26.5 mph N/A   Overcast
10:16 AM 44.6 °F 36.6 °F 37.4 °F 76% 29.10 in 5.0 mi East 19.6 mph 24.2 mph N/A   Overcast
10:36 AM 44.6 °F 36.9 °F 35.6 °F 71% 29.11 in 5.0 mi ESE 18.4 mph 24.2 mph N/A   Overcast
10:56 AM 44.6 °F 36.4 °F 35.6 °F 71% 29.11 in 5.0 mi ESE 20.7 mph - N/A   Overcast
11:16 AM 44.6 °F 35.5 °F 35.6 °F 71% 29.12 in 5.0 mi ESE 25.3 mph 32.2 mph N/A   Mostly Cloudy
11:36 AM 44.6 °F 37.4 °F 35.6 °F 71% 29.13 in 4.0 mi East 16.1 mph 28.8 mph N/A   Mostly Cloudy
11:56 AM 44.6 °F 36.6 °F 37.4 °F 76% 29.13 in 5.0 mi East 19.6 mph 24.2 mph N/A   Overcast
12:16 PM 44.6 °F 36.1 °F 37.4 °F 76% 29.13 in 5.0 mi East 21.9 mph 27.6 mph N/A   Overcast
12:36 PM 44.6 °F 36.1 °F 37.4 °F 76% 29.14 in 5.0 mi East 21.9 mph 28.8 mph N/A   Mostly Cloudy
1:16 PM 44.6 °F 36.1 °F 37.4 °F 76% 29.14 in 6.0 mi East 21.9 mph 27.6 mph N/A   Mostly Cloudy
1:36 PM 46.4 °F 38.5 °F 37.4 °F 71% 29.14 in 7.0 mi East 21.9 mph 28.8 mph N/A   Mostly Cloudy
1:56 PM 44.6 °F 36.4 °F 37.4 °F 76% 29.15 in 5.0 mi East 20.7 mph 26.5 mph N/A   Overcast
2:16 PM 44.6 °F 36.1 °F 37.4 °F 76% 29.16 in 5.0 mi ESE 21.9 mph 27.6 mph N/A   Overcast
2:36 PM 44.6 °F 35.9 °F 37.4 °F 76% 29.15 in 7.0 mi East 23.0 mph 29.9 mph N/A   Overcast
2:56 PM 44.6 °F 37.8 °F 35.6 °F 71% 29.16 in 6.0 mi East 15.0 mph - N/A   Overcast
3:16 PM 46.4 °F 38.3 °F 35.6 °F 66% 29.16 in 8.0 mi East 23.0 mph 29.9 mph N/A   Mostly Cloudy
3:36 PM 46.4 °F 38.1 °F 37.4 °F 71% 29.16 in 8.0 mi East 24.2 mph 29.9 mph N/A   Overcast
3:56 PM 44.6 °F 36.1 °F 37.4 °F 76% 29.16 in 7.0 mi East 21.9 mph 26.5 mph N/A   Overcast
4:16 PM 44.6 °F 36.4 °F 35.6 °F 71% 29.17 in 8.0 mi East 20.7 mph 28.8 mph N/A   Overcast
4:36 PM 42.8 °F 35.4 °F 35.6 °F 76% 29.17 in 4.0 mi East 15.0 mph 24.2 mph N/A   Overcast
4:56 PM 42.8 °F 35.1 °F 35.6 °F 76% 29.17 in 7.0 mi East 16.1 mph 20.7 mph N/A   Overcast
5:16 PM 44.6 °F 37.4 °F 35.6 °F 71% 29.17 in 8.0 mi East 16.1 mph 24.2 mph N/A   Overcast
5:36 PM 44.6 °F 37.4 °F 35.6 °F 71% 29.18 in 8.0 mi East 16.1 mph 24.2 mph N/A   Overcast
5:56 PM 44.6 °F 37.4 °F 35.6 °F 71% 29.18 in 8.0 mi East 16.1 mph 25.3 mph N/A   Overcast
6:16 PM 42.8 °F 35.4 °F 35.6 °F 76% 29.18 in 5.0 mi East 15.0 mph 24.2 mph N/A   Overcast
6:36 PM 42.8 °F 35.8 °F 35.6 °F 76% 29.19 in 4.0 mi East 13.8 mph - N/A   Overcast
6:56 PM 42.8 °F 36.6 °F 35.6 °F 76% 29.19 in 4.0 mi ENE 11.5 mph - N/A   Overcast
7:16 PM 42.8 °F 35.8 °F 35.6 °F 76% 29.19 in 5.0 mi NE 13.8 mph - N/A   Overcast
7:36 PM 42.8 °F 35.8 °F 37.4 °F 81% 29.19 in 5.0 mi ENE 13.8 mph 18.4 mph N/A   Overcast
7:56 PM 42.8 °F 37.0 °F 37.4 °F 81% 29.19 in 4.0 mi NE 10.4 mph - N/A   Overcast
8:16 PM 42.8 °F 37.5 °F 37.4 °F 81% 29.19 in 5.0 mi NE 9.2 mph - N/A   Overcast
8:36 PM 44.6 °F 38.8 °F 37.4 °F 76% 29.18 in 7.0 mi NE 11.5 mph - N/A   Mostly Cloudy
8:56 PM 44.6 °F 37.8 °F 37.4 °F 76% 29.18 in 9.0 mi NNE 15.0 mph - N/A   Overcast
9:16 PM 44.6 °F 38.4 °F 37.4 °F 76% 29.18 in 7.0 mi NE 12.7 mph - N/A   Mostly Cloudy
9:36 PM 44.6 °F 38.8 °F 37.4 °F 76% 29.18 in 4.0 mi NE 11.5 mph - N/A   Overcast
9:56 PM 44.6 °F 37.2 °F 37.4 °F 76% 29.17 in 8.0 mi NE 17.3 mph - N/A   Overcast
10:16 PM 44.6 °F 38.1 °F 37.4 °F 76% 29.18 in 8.0 mi NE 13.8 mph - N/A   Overcast
10:36 PM 44.6 °F 38.1 °F 37.4 °F 76% 29.18 in 8.0 mi NE 13.8 mph - N/A   Overcast
10:56 PM 44.6 °F 38.4 °F 37.4 °F 76% 29.19 in 9.0 mi NE 12.7 mph - N/A   Overcast
11:16 PM 44.6 °F 37.8 °F 37.4 °F 76% 29.19 in 8.0 mi NE 15.0 mph - N/A   Overcast
11:36 PM 44.6 °F 37.8 °F 37.4 °F 76% 29.20 in 9.0 mi NE 15.0 mph - N/A   Overcast
11:56 PM 44.6 °F 37.8 °F 37.4 °F 76% 29.20 in 9.0 mi NE 15.0 mph - N/A   Overcast